User: anonymous   Login
Location: George Washington National Forest Helicopter Landing Site
(38.6463°N, 79.0851°W)
Time: 04:56:12
(UTC-04:00)
Language:

Transit 4A - Orbit

View from above orbital plane
View from above orbital plane
View from above satellite
View from above satellite

Ground track
Ground track

The orbit data is extracted from the following two-line orbital elements,

1   116U 61015A   19237.90131208 -.00000053 +00000-0 +18479-4 0  9999
2   116 066.8084 213.1528 0080428 220.6519 138.8540 13.91756991950555
Epoch (UTC): 25 August 2019 21:37:53
Eccentricity: 0.0080428
inclination: 66.8084°
perigee height: 864 km
apogee height: 981 km
right ascension of ascending node: 213.1528°
argument of perigee: 220.6519°
revolutions per day: 13.91756991
mean anomaly at epoch: 138.8540°
orbit number at epoch: 95055

The dashed part of the orbit path shows where the satellite is in the earth's shadow,  

DLR